Time,TemperatureF,DewpointF,PressureIn,WindDirection,WindDirectionDegrees,WindSpeedMPH,WindSpeedGustMPH,Humidity,HourlyPrecipIn,Conditions,Clouds,dailyrainin,SoftwareType,DateUTC
2013-03-10 00:02:00,67.0,-99.9,29.65,SSE,148,28.0,31.0,-999,-99.99,,,-99.99,,2013-03-10 06:02:00,
2013-03-10 00:11:00,67.0,-99.9,29.65,SSE,147,26.0,31.0,-999,-99.99,,,-99.99,,2013-03-10 06:11:00,
2013-03-10 00:22:00,67.0,-99.9,29.65,SSE,148,26.0,28.0,-999,-99.99,,,-99.99,,2013-03-10 06:22:00,
2013-03-10 00:32:00,68.0,-99.9,29.65,SSE,150,25.0,29.0,-999,-99.99,,,-99.99,,2013-03-10 06:32:00,
2013-03-10 00:42:00,68.0,-99.9,29.65,SSE,150,25.0,28.0,-999,-99.99,,,-99.99,,2013-03-10 06:42:00,
2013-03-10 00:52:00,68.0,-99.9,29.64,SSE,151,26.0,29.0,-999,-99.99,,,-99.99,,2013-03-10 06:52:00,
2013-03-10 01:02:00,68.0,-99.9,29.64,SSE,152,25.0,28.0,-999,-99.99,,,-99.99,,2013-03-10 07:02:00,
2013-03-10 01:11:00,67.0,-99.9,29.64,SSE,153,25.0,30.0,-999,-99.99,,,-99.99,,2013-03-10 07:11:00,
2013-03-10 01:21:00,68.0,-99.9,29.63,SSE,149,25.0,29.0,-999,-99.99,,,-99.99,,2013-03-10 07:21:00,
2013-03-10 01:32:00,68.0,-99.9,29.64,SSE,153,23.0,28.0,-999,-99.99,,,-99.99,,2013-03-10 07:32:00,
2013-03-10 01:42:00,68.0,-99.9,29.64,SSE,154,24.0,27.0,-999,-99.99,,,-99.99,,2013-03-10 07:42:00,
2013-03-10 01:52:00,68.0,-99.9,29.62,SSE,153,26.0,29.0,-999,-99.99,,,-99.99,,2013-03-10 07:52:00,
2013-03-10 03:02:00,68.0,-99.9,29.61,SSE,154,28.0,32.0,-999,-99.99,,,-99.99,,2013-03-10 08:02:00,
2013-03-10 03:12:00,68.0,-99.9,29.61,SSE,154,29.0,32.0,-999,-99.99,,,-99.99,,2013-03-10 08:12:00,
2013-03-10 03:21:00,68.0,-99.9,29.61,SSE,152,27.0,30.0,-999,-99.99,,,-99.99,,2013-03-10 08:21:00,
2013-03-10 03:32:00,68.0,-99.9,29.60,SSE,154,26.0,30.0,-999,-99.99,,,-99.99,,2013-03-10 08:32:00,
2013-03-10 03:42:00,68.0,-99.9,29.60,SSE,158,23.0,30.0,-999,-99.99,,,-99.99,,2013-03-10 08:42:00,
2013-03-10 03:52:00,68.0,-99.9,29.60,SSE,157,26.0,29.0,-999,-99.99,,,-99.99,,2013-03-10 08:52:00,
2013-03-10 04:02:00,68.0,-99.9,29.58,SSE,152,28.0,32.0,-999,-99.99,,,-99.99,,2013-03-10 09:02:00,
2013-03-10 04:11:00,68.0,-99.9,29.58,SSE,157,27.0,30.0,-999,-99.99,,,-99.99,,2013-03-10 09:11:00,
2013-03-10 04:21:00,68.0,-99.9,29.59,SSE,154,29.0,32.0,-999,-99.99,,,-99.99,,2013-03-10 09:21:00,
2013-03-10 04:32:00,68.0,-99.9,29.58,SSE,153,29.0,33.0,-999,-99.99,,,-99.99,,2013-03-10 09:32:00,
2013-03-10 04:42:00,68.0,-99.9,29.58,SSE,153,28.0,34.0,-999,-99.99,,,-99.99,,2013-03-10 09:42:00,
2013-03-10 04:52:00,68.0,-99.9,29.58,SSE,154,28.0,31.0,-999,-99.99,,,-99.99,,2013-03-10 09:52:00,
2013-03-10 05:02:00,68.0,-99.9,29.59,SSE,162,26.0,30.0,-999,-99.99,,,-99.99,,2013-03-10 10:02:00,
2013-03-10 05:11:00,68.0,-99.9,29.59,SSE,165,26.0,28.0,-999,-99.99,,,-99.99,,2013-03-10 10:11:00,
2013-03-10 05:22:00,68.0,-99.9,29.61,SSE,168,24.0,27.0,-999,-99.99,,,-99.99,,2013-03-10 10:22:00,
2013-03-10 05:32:00,68.0,-99.9,29.60,SSE,165,24.0,28.0,-999,-99.99,,,-99.99,,2013-03-10 10:32:00,
2013-03-10 05:42:00,68.0,-99.9,29.60,SSE,166,24.0,27.0,-999,-99.99,,,-99.99,,2013-03-10 10:42:00,
2013-03-10 05:52:00,68.0,-99.9,29.62,SSW,211,14.0,22.0,-999,-99.99,,,-99.99,,2013-03-10 10:52:00,
2013-03-10 06:02:00,69.0,-99.9,29.71,SW,232,11.0,15.0,-999,-99.99,,,-99.99,,2013-03-10 11:02:00,
2013-03-10 06:12:00,69.0,-99.9,29.70,SSW,202,11.0,14.0,-999,-99.99,,,-99.99,,2013-03-10 11:12:00,
2013-03-10 06:22:00,69.0,-99.9,29.70,SW,216,9.0,14.0,-999,-99.99,,,-99.99,,2013-03-10 11:22:00,
2013-03-10 06:32:00,69.0,-99.9,29.71,SSW,202,6.0,11.0,-999,-99.99,,,-99.99,,2013-03-10 11:32:00,
2013-03-10 06:42:00,69.0,-99.9,29.71,South,181,7.0,8.0,-999,-99.99,,,-99.99,,2013-03-10 11:42:00,
2013-03-10 06:52:00,69.0,-99.9,29.72,SSW,199,6.0,8.0,-999,-99.99,,,-99.99,,2013-03-10 11:52:00,
2013-03-10 07:02:00,68.0,-99.9,29.72,SSE,153,7.0,9.0,-999,-99.99,,,-99.99,,2013-03-10 12:02:00,
2013-03-10 07:11:00,69.0,-99.9,29.72,SE,139,10.0,11.0,-999,-99.99,,,-99.99,,2013-03-10 12:11:00,
2013-03-10 07:21:00,68.0,-99.9,29.71,SE,139,12.0,13.0,-999,-99.99,,,-99.99,,2013-03-10 12:21:00,
2013-03-10 07:32:00,67.0,-99.9,29.72,SE,143,12.0,12.0,-999,-99.99,,,-99.99,,2013-03-10 12:32:00,
2013-03-10 07:42:00,67.0,-99.9,29.72,SE,142,11.0,12.0,-999,-99.99,,,-99.99,,2013-03-10 12:42:00,
2013-03-10 07:52:00,67.0,-99.9,29.72,SE,140,11.0,12.0,-999,-99.99,,,-99.99,,2013-03-10 12:52:00,
2013-03-10 08:01:00,67.0,-99.9,29.72,SE,133,11.0,11.0,-999,-99.99,,,-99.99,,2013-03-10 13:01:00,
2013-03-10 08:11:00,67.0,-99.9,29.73,SE,133,10.0,11.0,-999,-99.99,,,-99.99,,2013-03-10 13:11:00,
2013-03-10 08:21:00,67.0,-99.9,29.73,SE,132,10.0,11.0,-999,-99.99,,,-99.99,,2013-03-10 13:21:00,
2013-03-10 08:32:00,67.0,-99.9,29.74,SE,125,7.0,9.0,-999,-99.99,,,-99.99,,2013-03-10 13:32:00,
2013-03-10 08:42:00,66.0,-99.9,29.74,SE,127,8.0,9.0,-999,-99.99,,,-99.99,,2013-03-10 13:42:00,
2013-03-10 08:52:00,66.0,-99.9,29.74,SE,135,9.0,11.0,-999,-99.99,,,-99.99,,2013-03-10 13:52:00,
2013-03-10 09:02:00,67.0,-99.9,29.75,SE,138,6.0,9.0,-999,-99.99,,,-99.99,,2013-03-10 14:02:00,
2013-03-10 09:12:00,67.0,-99.9,29.75,SE,135,6.0,12.0,-999,-99.99,,,-99.99,,2013-03-10 14:12:00,
2013-03-10 09:22:00,67.0,-99.9,29.75,South,169,3.0,8.0,-999,-99.99,,,-99.99,,2013-03-10 14:22:00,
2013-03-10 09:32:00,67.0,-99.9,29.76,SSW,192,3.0,4.0,-999,-99.99,,,-99.99,,2013-03-10 14:32:00,
2013-03-10 09:42:00,67.0,-99.9,29.77,SSW,204,3.0,4.0,-999,-99.99,,,-99.99,,2013-03-10 14:42:00,
2013-03-10 09:52:00,67.0,-99.9,29.77,SW,228,3.0,4.0,-999,-99.99,,,-99.99,,2013-03-10 14:52:00,
2013-03-10 10:01:00,68.0,-99.9,29.78,West,278,9.0,26.0,-999,-99.99,,,-99.99,,2013-03-10 15:01:00,
2013-03-10 10:11:00,65.0,-99.9,29.79,NNW,346,35.0,42.0,-999,-99.99,,,-99.99,,2013-03-10 15:11:00,
2013-03-10 10:21:00,60.0,-99.9,29.81,North,352,30.0,38.0,-999,-99.99,,,-99.99,,2013-03-10 15:21:00,
2013-03-10 10:32:00,61.0,-99.9,29.82,North,353,26.0,31.0,-999,-99.99,,,-99.99,,2013-03-10 15:32:00,
2013-03-10 10:42:00,62.0,-99.9,29.83,North,355,25.0,33.0,-999,-99.99,,,-99.99,,2013-03-10 15:42:00,
2013-03-10 10:52:00,62.0,-99.9,29.83,North,358,22.0,29.0,-999,-99.99,,,-99.99,,2013-03-10 15:52:00,
2013-03-10 11:02:00,62.0,-99.9,29.84,North,358,20.0,28.0,-999,-99.99,,,-99.99,,2013-03-10 16:02:00,
2013-03-10 11:12:00,63.0,-99.9,29.84,North,357,22.0,28.0,-999,-99.99,,,-99.99,,2013-03-10 16:12:00,
2013-03-10 11:22:00,63.0,-99.9,29.85,North,3,23.0,27.0,-999,-99.99,,,-99.99,,2013-03-10 16:22:00,
2013-03-10 11:32:00,64.0,-99.9,29.85,North,360,23.0,31.0,-999,-99.99,,,-99.99,,2013-03-10 16:32:00,
2013-03-10 11:42:00,63.0,-99.9,29.85,North,359,27.0,30.0,-999,-99.99,,,-99.99,,2013-03-10 16:42:00,
2013-03-10 11:52:00,64.0,-99.9,29.85,North,358,24.0,30.0,-999,-99.99,,,-99.99,,2013-03-10 16:52:00,
2013-03-10 12:01:00,64.0,-99.9,29.85,North,358,22.0,27.0,-999,-99.99,,,-99.99,,2013-03-10 17:01:00,
2013-03-10 12:11:00,64.0,-99.9,29.86,North,359,20.0,26.0,-999,-99.99,,,-99.99,,2013-03-10 17:11:00,
2013-03-10 12:21:00,64.0,-99.9,29.86,North,3,24.0,31.0,-999,-99.99,,,-99.99,,2013-03-10 17:21:00,
2013-03-10 12:32:00,64.0,-99.9,29.87,North,3,20.0,28.0,-999,-99.99,,,-99.99,,2013-03-10 17:32:00,
2013-03-10 12:41:00,64.0,-99.9,29.87,North,357,23.0,27.0,-999,-99.99,,,-99.99,,2013-03-10 17:41:00,
2013-03-10 12:52:00,64.0,-99.9,29.88,North,-999,22.0,28.0,-999,-99.99,,,-99.99,,2013-03-10 17:52:00,
2013-03-10 13:01:00,64.0,-99.9,29.88,North,1,20.0,24.0,-999,-99.99,,,-99.99,,2013-03-10 18:01:00,
2013-03-10 13:12:00,64.0,-99.9,29.88,North,359,19.0,25.0,-999,-99.99,,,-99.99,,2013-03-10 18:12:00,
2013-03-10 13:22:00,65.0,-99.9,29.87,North,1,18.0,22.0,-999,-99.99,,,-99.99,,2013-03-10 18:22:00,
2013-03-10 13:32:00,65.0,-99.9,29.88,North,6,20.0,25.0,-999,-99.99,,,-99.99,,2013-03-10 18:32:00,
2013-03-10 13:42:00,65.0,-99.9,29.88,North,359,17.0,21.0,-999,-99.99,,,-99.99,,2013-03-10 18:42:00,
2013-03-10 13:53:00,65.0,-99.9,29.87,North,360,18.0,24.0,-999,-99.99,,,-99.99,,2013-03-10 18:53:00,
2013-03-10 14:02:00,66.0,-99.9,29.87,North,356,17.0,22.0,-999,-99.99,,,-99.99,,2013-03-10 19:02:00,
2013-03-10 14:11:00,66.0,-99.9,29.87,North,352,20.0,25.0,-999,-99.99,,,-99.99,,2013-03-10 19:11:00,
2013-03-10 14:22:00,67.0,-99.9,29.87,North,358,21.0,25.0,-999,-99.99,,,-99.99,,2013-03-10 19:22:00,
2013-03-10 14:32:00,67.0,-99.9,29.87,North,6,20.0,26.0,-999,-99.99,,,-99.99,,2013-03-10 19:32:00,
2013-03-10 14:42:00,67.0,-99.9,29.86,North,5,19.0,22.0,-999,-99.99,,,-99.99,,2013-03-10 19:42:00,
2013-03-10 14:53:00,68.0,-99.9,29.86,North,4,21.0,25.0,-999,-99.99,,,-99.99,,2013-03-10 19:53:00,
2013-03-10 15:02:00,68.0,-99.9,29.86,North,5,18.0,24.0,-999,-99.99,,,-99.99,,2013-03-10 20:02:00,
2013-03-10 15:13:00,68.0,-99.9,29.86,North,5,21.0,24.0,-999,-99.99,,,-99.99,,2013-03-10 20:13:00,
2013-03-10 15:22:00,68.0,-99.9,29.85,North,5,18.0,23.0,-999,-99.99,,,-99.99,,2013-03-10 20:22:00,
2013-03-10 15:33:00,68.0,-99.9,29.85,NNE,15,18.0,23.0,-999,-99.99,,,-99.99,,2013-03-10 20:33:00,
2013-03-10 15:43:00,68.0,-99.9,29.85,NNE,28,15.0,20.0,-999,-99.99,,,-99.99,,2013-03-10 20:43:00,
2013-03-10 15:53:00,67.0,-99.9,29.85,NE,34,14.0,19.0,-999,-99.99,,,-99.99,,2013-03-10 20:53:00,
2013-03-10 16:02:00,66.0,-99.9,29.85,NNE,28,16.0,18.0,-999,-99.99,,,-99.99,,2013-03-10 21:02:00,
2013-03-10 16:12:00,66.0,-99.9,29.85,NE,34,14.0,18.0,-999,-99.99,,,-99.99,,2013-03-10 21:12:00,
2013-03-10 16:23:00,66.0,-99.9,29.85,NE,37,13.0,15.0,-999,-99.99,,,-99.99,,2013-03-10 21:23:00,
2013-03-10 16:33:00,66.0,-99.9,29.85,NE,45,13.0,15.0,-999,-99.99,,,-99.99,,2013-03-10 21:33:00,
2013-03-10 16:43:00,65.0,-99.9,29.84,NE,44,15.0,17.0,-999,-99.99,,,-99.99,,2013-03-10 21:43:00,
2013-03-10 16:53:00,65.0,-99.9,29.84,NE,46,14.0,16.0,-999,-99.99,,,-99.99,,2013-03-10 21:53:00,
2013-03-10 17:03:00,65.0,-99.9,29.84,NE,42,16.0,18.0,-999,-99.99,,,-99.99,,2013-03-10 22:03:00,
2013-03-10 17:12:00,65.0,-99.9,29.83,NE,38,16.0,18.0,-999,-99.99,,,-99.99,,2013-03-10 22:12:00,
2013-03-10 17:22:00,65.0,-99.9,29.83,NE,38,16.0,17.0,-999,-99.99,,,-99.99,,2013-03-10 22:22:00,
2013-03-10 17:33:00,65.0,-99.9,29.83,NE,39,16.0,19.0,-999,-99.99,,,-99.99,,2013-03-10 22:33:00,
2013-03-10 17:43:00,66.0,-99.9,29.82,NE,39,16.0,19.0,-999,-99.99,,,-99.99,,2013-03-10 22:43:00,
2013-03-10 17:53:00,65.0,-99.9,29.82,NE,40,16.0,17.0,-999,-99.99,,,-99.99,,2013-03-10 22:53:00,
2013-03-10 18:03:00,65.0,-99.9,29.82,NE,42,17.0,19.0,-999,-99.99,,,-99.99,,2013-03-10 23:03:00,
2013-03-10 18:12:00,66.0,-99.9,29.82,NE,42,17.0,20.0,-999,-99.99,,,-99.99,,2013-03-10 23:12:00,
2013-03-10 18:23:00,66.0,-99.9,29.82,NE,38,16.0,18.0,-999,-99.99,,,-99.99,,2013-03-10 23:23:00,
2013-03-10 18:33:00,65.0,-99.9,29.83,NE,38,14.0,17.0,-999,-99.99,,,-99.99,,2013-03-10 23:33:00,
2013-03-10 18:43:00,65.0,-99.9,29.83,NE,37,14.0,19.0,-999,-99.99,,,-99.99,,2013-03-10 23:43:00,
2013-03-10 18:53:00,66.0,-99.9,29.83,NE,35,13.0,18.0,-999,-99.99,,,-99.99,,2013-03-10 23:53:00,
2013-03-10 19:03:00,66.0,-99.9,29.84,NE,36,12.0,17.0,-999,-99.99,,,-99.99,,2013-03-11 00:03:00,
2013-03-10 19:13:00,66.0,-99.9,29.84,NE,40,11.0,16.0,-999,-99.99,,,-99.99,,2013-03-11 00:13:00,
2013-03-10 19:23:00,66.0,-99.9,29.85,North,355,16.0,18.0,-999,-99.99,,,-99.99,,2013-03-11 00:23:00,
2013-03-10 19:33:00,70.0,-99.9,29.86,North,351,17.0,20.0,-999,-99.99,,,-99.99,,2013-03-11 00:33:00,
2013-03-10 19:43:00,70.0,-99.9,29.86,North,350,17.0,20.0,-999,-99.99,,,-99.99,,2013-03-11 00:43:00,
2013-03-10 19:53:00,70.0,-99.9,29.87,NNW,346,17.0,20.0,-999,-99.99,,,-99.99,,2013-03-11 00:53:00,
2013-03-10 20:03:00,70.0,-99.9,29.87,NNW,341,22.0,27.0,-999,-99.99,,,-99.99,,2013-03-11 01:03:00,
2013-03-10 20:13:00,70.0,-99.9,29.88,NNW,344,22.0,28.0,-999,-99.99,,,-99.99,,2013-03-11 01:13:00,
2013-03-10 20:23:00,70.0,-99.9,29.88,NNW,346,21.0,24.0,-999,-99.99,,,-99.99,,2013-03-11 01:23:00,
2013-03-10 20:33:00,69.0,-99.9,29.88,North,352,19.0,24.0,-999,-99.99,,,-99.99,,2013-03-11 01:33:00,
2013-03-10 20:43:00,69.0,-99.9,29.88,North,351,20.0,24.0,-999,-99.99,,,-99.99,,2013-03-11 01:43:00,
2013-03-10 20:53:00,68.0,-99.9,29.89,North,350,17.0,22.0,-999,-99.99,,,-99.99,,2013-03-11 01:53:00,
2013-03-10 21:03:00,68.0,-99.9,29.89,North,355,15.0,20.0,-999,-99.99,,,-99.99,,2013-03-11 02:03:00,
2013-03-10 21:13:00,68.0,-99.9,29.90,North,354,15.0,19.0,-999,-99.99,,,-99.99,,2013-03-11 02:13:00,
2013-03-10 21:23:00,67.0,-99.9,29.92,NNW,347,14.0,16.0,-999,-99.99,,,-99.99,,2013-03-11 02:23:00,
2013-03-10 21:32:00,67.0,-99.9,29.93,NNW,348,14.0,19.0,-999,-99.99,,,-99.99,,2013-03-11 02:32:00,
2013-03-10 21:42:00,67.0,-99.9,29.93,North,349,14.0,17.0,-999,-99.99,,,-99.99,,2013-03-11 02:42:00,
2013-03-10 21:53:00,67.0,-99.9,29.95,North,350,16.0,19.0,-999,-99.99,,,-99.99,,2013-03-11 02:53:00,
2013-03-10 22:03:00,67.0,-99.9,29.96,North,350,15.0,18.0,-999,-99.99,,,-99.99,,2013-03-11 03:03:00,
2013-03-10 22:12:00,66.0,-99.9,29.96,North,-999,15.0,18.0,-999,-99.99,,,-99.99,,2013-03-11 03:12:00,
2013-03-10 22:22:00,66.0,-99.9,29.98,North,6,14.0,16.0,-999,-99.99,,,-99.99,,2013-03-11 03:22:00,
2013-03-10 22:32:00,66.0,-99.9,29.99,North,359,23.0,27.0,-999,-99.99,,,-99.99,,2013-03-11 03:32:00,
2013-03-10 22:43:00,66.0,-99.9,29.99,North,351,24.0,30.0,-999,-99.99,,,-99.99,,2013-03-11 03:43:00,
2013-03-10 22:53:00,65.0,-99.9,30.00,North,351,23.0,30.0,-999,-99.99,,,-99.99,,2013-03-11 03:53:00,
2013-03-10 23:03:00,65.0,-99.9,30.01,North,355,26.0,32.0,-999,-99.99,,,-99.99,,2013-03-11 04:03:00,
2013-03-10 23:12:00,65.0,-99.9,30.01,North,354,24.0,32.0,-999,-99.99,,,-99.99,,2013-03-11 04:12:00,
2013-03-10 23:22:00,64.0,-99.9,30.01,NNW,345,23.0,28.0,-999,-99.99,,,-99.99,,2013-03-11 04:22:00,
2013-03-10 23:33:00,64.0,-99.9,30.03,North,349,21.0,25.0,-999,-99.99,,,-99.99,,2013-03-11 04:33:00,
2013-03-10 23:43:00,64.0,-99.9,30.03,North,351,21.0,26.0,-999,-99.99,,,-99.99,,2013-03-11 04:43:00,
2013-03-10 23:53:00,64.0,-99.9,30.04,NNW,347,16.0,22.0,-999,-99.99,,,-99.99,,2013-03-11 04:53:00,